[[{"header":{"parameterUnit":"m.s-1","parameterCategory":1,"la1":30.2991,"la2":30.254,"lo1":-89.0895,"lo2":-89.0444,"dy":0.0017,"dx":0.0017,"nx":28,"ny":28,"refTime":"2023-05-28T21:00:00:Z","depth":0,"parameterNumber":2,"parameterNumberName":"U-component_of_WINDS"},"data":[0,0,0,0,0,0,0,0,0,0,0,0,0,0,0,0,0,0,0,0,0,0,0,0,0,0,0,0,0,0,0,0,0,0,0,0,0,0,0,0,0,0,0,0,0,0,0,0,0,0,0,0,0,0,0,0,0,0,2.4225,2.4226,0,2.4287,2.4288,2.4288,2.4249,2.4248,2.4246,2.4244,2.4305,2.4309,2.4312,0,0,0,0,0,0,0,0,0,0,0,0,0,2.407,2.4073,2.4225,2.4226,2.4227,2.4287,2.4288,2.4288,2.425,2.4248,2.4245,2.4243,2.4304,2.4308,2.4312,0,0,0,0,0,0,0,0,0,0,0,0,0,2.4135,2.4074,2.4225,2.4215,2.4214,2.4287,2.4288,2.4289,2.425,2.4247,2.4245,2.4242,2.4303,2.4308,2.4313,2.4398,0,0,2.4328,2.433,0,0,0,0,0,0,0,0,2.4131,2.4141,2.4215,2.4215,2.4215,2.4258,2.4255,2.4325,2.4251,2.4237,2.4244,2.4241,2.4292,2.4297,2.4315,2.4401,2.4404,2.4329,2.4332,2.4334,2.4335,0,0,0,0,0,0,0,2.4127,2.4138,2.4249,2.4216,2.4216,2.4206,2.4212,2.4268,2.4279,2.4238,2.4235,2.4243,2.4291,2.431,2.4316,2.4405,2.4328,2.4333,2.4336,2.4338,2.456,2.4563,0,0,0,0,0,0,2.4124,2.4134,2.4247,2.4251,2.4166,2.4211,2.4218,2.4247,2.4278,2.428,2.4245,2.4241,2.4303,2.431,2.4318,2.4417,2.4334,2.4338,2.4341,2.4557,2.456,2.4564,0,0,0,0,0,0,2.412,2.4134,2.4245,2.4192,2.4205,2.4216,2.4249,2.4249,2.4268,2.4284,2.4285,2.4263,2.4301,2.4311,2.4378,2.4419,2.4341,2.4345,2.4554,2.4558,2.4562,2.4618,0,0,0,0,0,0,2.4116,2.4133,2.4167,2.4193,2.4208,2.4305,2.4252,2.4253,2.4277,2.4272,2.4301,2.4303,2.43,2.4371,2.4383,2.4424,2.4349,2.455,2.4556,2.4561,2.4612,2.4623,2.4633,0,0,0,0,0,2.4111,2.418,2.4169,2.4183,2.4251,2.4307,2.4316,2.4312,2.4281,2.4314,2.4323,2.4302,2.4413,2.4378,2.4391,2.4435,2.4547,2.4554,2.456,2.4607,2.4621,2.4633,0,0,0,0,0,0,2.4158,2.4184,2.4171,2.4252,2.4278,2.4301,2.4342,2.4327,2.4362,2.4356,2.4348,2.4355,2.4424,2.4436,2.4397,2.4517,2.4475,2.4484,2.4506,2.4519,2.453,2.4524,2.4353,0,0,0,0,0,2.4178,2.4223,2.4243,2.4312,2.4325,2.4332,2.4356,2.4351,2.4377,2.4388,2.4402,2.4428,2.4468,2.4495,2.4533,2.4614,2.4618,2.4651,2.4661,2.467,2.4677,2.4718,2.4731,2.4585,2.4585,2.4585,0,0,2.422,2.4239,2.4268,2.4322,2.4341,2.4386,2.4341,2.4392,2.4424,2.4395,2.4458,2.447,2.4498,2.4571,2.4604,2.4584,2.4718,2.4678,2.4685,2.4687,2.4726,2.4739,2.4752,2.459,2.4589,2.4588,0,0,2.4317,2.4338,2.4396,2.4416,2.4446,2.445,2.4464,2.4489,2.4495,2.4559,2.4537,2.4575,2.4646,2.4666,2.4685,2.4788,2.4769,2.4801,2.4855,2.4894,2.4906,2.4916,2.4949,2.4962,2.4809,2.4809,2.4809,0,2.4365,2.4433,2.4428,2.4479,2.4502,2.4478,2.4535,2.4555,2.4596,2.4611,2.4588,2.4674,2.4692,2.4768,2.4792,2.481,2.4824,2.4797,2.4905,2.4915,2.4924,2.4956,2.4969,2.4813,2.4812,2.4812,2.4812,0,2.4488,2.4535,2.4578,2.4617,2.4646,2.47,2.4701,2.473,2.4722,2.4727,2.479,2.481,2.4851,2.4869,2.4862,2.4943,2.4929,2.4906,2.4862,2.4941,2.4971,2.4984,2.4818,2.4817,2.4815,2.4815,0,0,2.4617,2.4652,2.4668,2.4684,2.4714,2.475,2.4802,2.4842,2.4865,2.4894,2.4935,2.4995,2.4972,2.4994,2.4989,2.5024,2.51,2.4995,2.4996,2.5011,2.5187,2.5203,2.5217,2.5088,2.5091,2.5093,2.5184,0,2.4714,2.4805,2.4801,2.4886,2.4927,2.4904,2.4949,2.4972,2.4978,2.5013,2.502,2.5061,2.503,2.5042,2.5076,2.5084,2.5135,2.5077,2.5124,2.5126,2.5115,2.5233,2.5251,2.5336,2.5196,2.5198,2.5199,0,2.484,2.4872,2.496,2.4982,2.4999,2.504,2.5074,2.5109,2.5133,2.5135,2.5158,2.5147,2.5197,2.5154,2.5222,2.5183,2.5202,2.5209,2.5212,2.5214,2.5166,2.5236,2.5363,2.5375,2.5218,2.5217,2.5215,0,2.4921,2.4987,2.5047,2.5062,2.509,2.5118,2.5131,2.5153,2.5176,2.5206,2.522,2.5256,2.5274,2.5301,2.5299,2.5269,2.5367,2.5325,2.5367,2.5367,2.5387,2.5385,2.5516,2.5404,2.5404,2.5404,2.5404,0,2.5028,2.5082,2.5083,2.512,2.5179,2.5174,2.5232,2.5242,2.5261,2.5298,2.5281,2.5316,2.5312,2.5346,2.5345,2.5399,2.5409,2.541,2.5408,2.541,2.5409,2.542,2.5413,2.5407,2.5406,2.5406,2.5405,0,2.5128,2.5132,2.5195,2.5216,2.5222,2.5265,2.5281,2.5315,2.532,2.5367,2.5377,2.5384,2.5423,2.5424,2.5469,2.5468,2.5534,2.5527,2.5525,2.5523,2.5564,2.5559,2.5705,2.5722,2.5602,2.5603,2.5604,0,2.5195,2.5236,2.5261,2.5284,2.5298,2.5337,2.536,2.5356,2.538,2.541,2.5439,2.5477,2.5507,2.5571,2.5579,2.5613,2.5605,2.5654,2.561,2.5609,2.5602,2.5598,2.5601,2.5661,2.5663,2.5664,2.5665,0,2.5313,2.5312,2.5346,2.538,2.5408,2.5435,2.5459,2.5479,2.5478,2.5506,2.5546,2.5569,2.5614,2.5651,2.5684,2.5695,2.5679,2.5679,2.569,2.569,2.5687,2.5686,2.5545,2.5675,2.5674,2.5673,2.5673,2.5672,2.5396,2.543,2.5452,2.5489,2.5507,2.553,2.5562,2.557,2.5604,2.564,2.5636,2.568,2.57,2.5742,2.5757,2.5789,2.5772,2.5789,2.5793,2.5796,2.5799,2.5684,2.5796,2.5796,2.5795,2.5795,2.5795,0,2.551,2.5522,2.5557,2.5591,2.562,2.5604,2.5629,2.5654,2.5693,2.5714,2.5744,2.5788,2.5823,2.5834,2.5867,2.5891,2.5884,2.59,2.5897,2.5899,2.5815,2.58,2.5905,2.5905,2.5905,2.5905,2.5905,2.5905,2.5572,2.5627,2.5629,2.5692,2.5704,2.5747,2.5762,2.5782,2.5799,2.5849,2.5878,2.5885,2.5901,2.5935,2.5966,2.5968,2.5979,2.5997,2.5996,2.5916,2.5905,2.5895,2.5881,2.6001,2.6001,2.6077,2.6078,2.6078]},{"header":{"parameterUnit":"m.s-1","parameterCategory":1,"la1":30.2991,"la2":30.254,"lo1":-89.0895,"lo2":-89.0444,"dy":0.0017,"dx":0.0017,"nx":28,"ny":28,"refTime":"2023-05-28T21:00:00:Z","depth":0,"parameterNumber":3,"parameterNumberName":"V-component_of_WINDS"},"data":[0,0,0,0,0,0,0,0,0,0,0,0,0,0,0,0,0,0,0,0,0,0,0,0,0,0,0,0,0,0,0,0,0,0,0,0,0,0,0,0,0,0,0,0,0,0,0,0,0,0,0,0,0,0,0,0,0,0,0.4093,0.4094,0,0.4171,0.4172,0.4173,0.4191,0.419,0.419,0.4189,0.4272,0.4274,0.4277,0,0,0,0,0,0,0,0,0,0,0,0,0,0.396,0.3962,0.4093,0.4094,0.4095,0.4171,0.4172,0.4173,0.4191,0.419,0.4189,0.4189,0.4271,0.4274,0.4277,0,0,0,0,0,0,0,0,0,0,0,0,0,0.4026,0.3963,0.4093,0.4113,0.4115,0.4171,0.4172,0.4173,0.4191,0.419,0.4189,0.4188,0.427,0.4274,0.4278,0.432,0,0,0.429,0.4292,0,0,0,0,0,0,0,0,0.4022,0.4031,0.4109,0.4111,0.4114,0.417,0.4156,0.4223,0.4191,0.4162,0.4189,0.4188,0.4239,0.4245,0.4262,0.4324,0.4327,0.4291,0.4293,0.4295,0.4296,0,0,0,0,0,0,0,0.4018,0.4028,0.4124,0.411,0.4113,0.4118,0.4127,0.4168,0.4204,0.4165,0.4166,0.4175,0.424,0.4258,0.4264,0.4328,0.429,0.4294,0.4297,0.4298,0.4427,0.4428,0,0,0,0,0,0,0.4009,0.4024,0.4121,0.4126,0.4065,0.4121,0.4131,0.4153,0.4204,0.4211,0.4176,0.4176,0.4251,0.4259,0.4267,0.4319,0.4295,0.4299,0.4301,0.4426,0.4427,0.4428,0,0,0,0,0,0,0.4006,0.4018,0.4118,0.4075,0.4088,0.4124,0.4149,0.4155,0.4173,0.4212,0.4219,0.4187,0.4251,0.4261,0.4306,0.4322,0.43,0.4304,0.4425,0.4426,0.4428,0.4423,0,0,0,0,0,0,0.4002,0.4017,0.4033,0.4075,0.4091,0.4155,0.415,0.4157,0.418,0.418,0.4225,0.4231,0.4251,0.43,0.431,0.4327,0.4307,0.4424,0.4426,0.4427,0.4422,0.4424,0.4426,0,0,0,0,0,0.3998,0.4029,0.4033,0.4045,0.4111,0.4156,0.4165,0.4187,0.4181,0.4197,0.4222,0.423,0.4318,0.4304,0.4316,0.4335,0.4423,0.4425,0.4427,0.4421,0.4424,0.4426,0,0,0,0,0,0,0.3989,0.4035,0.404,0.4087,0.4117,0.4159,0.4181,0.4189,0.4223,0.4222,0.4248,0.4258,0.4301,0.4322,0.4306,0.4377,0.437,0.4375,0.4362,0.4365,0.4367,0.4361,0.4311,0,0,0,0,0,0.3992,0.4024,0.4063,0.41,0.4115,0.4145,0.4165,0.4179,0.4212,0.4226,0.4254,0.4287,0.4322,0.4344,0.4379,0.4425,0.4435,0.4443,0.4445,0.4447,0.4451,0.4476,0.448,0.4436,0.4435,0.4435,0,0,0.3999,0.4028,0.4047,0.4099,0.4124,0.4157,0.4156,0.4191,0.4216,0.4231,0.4275,0.4297,0.4335,0.438,0.4401,0.4399,0.4465,0.4449,0.445,0.4454,0.4478,0.4483,0.4486,0.4437,0.4437,0.4436,0,0,0.4029,0.4054,0.4087,0.4112,0.415,0.417,0.4178,0.4218,0.4233,0.4277,0.4289,0.4319,0.4379,0.4405,0.4426,0.4464,0.4472,0.4474,0.4485,0.451,0.4513,0.4516,0.4529,0.4534,0.4478,0.4478,0.4478,0,0.4034,0.4083,0.4104,0.4138,0.416,0.4174,0.4207,0.4231,0.4279,0.4294,0.429,0.4365,0.4391,0.4443,0.4451,0.4468,0.4478,0.447,0.4511,0.4514,0.4518,0.453,0.4535,0.4478,0.4478,0.4478,0.4478,0,0.4086,0.412,0.4143,0.4186,0.4211,0.4245,0.4271,0.4293,0.4304,0.4324,0.4369,0.4401,0.4441,0.4454,0.4466,0.4507,0.4504,0.4505,0.4499,0.4521,0.4534,0.4539,0.4478,0.4478,0.4478,0.4478,0,0,0.4114,0.4168,0.4176,0.4195,0.4237,0.4264,0.4298,0.4337,0.4355,0.4387,0.4417,0.4466,0.4467,0.4491,0.4506,0.4527,0.4554,0.4525,0.4527,0.4529,0.46,0.4599,0.4604,0.4559,0.456,0.4561,0.4597,0,0.4149,0.421,0.4228,0.4279,0.431,0.4324,0.4353,0.4382,0.4402,0.4431,0.4453,0.4487,0.4486,0.45,0.4522,0.4546,0.4569,0.4544,0.4587,0.4588,0.4577,0.4611,0.461,0.4643,0.4602,0.4603,0.4603,0,0.4199,0.4229,0.4283,0.4319,0.4333,0.436,0.4396,0.4424,0.4457,0.447,0.4495,0.4508,0.4544,0.4535,0.4585,0.4568,0.4587,0.4601,0.4603,0.4608,0.4597,0.4617,0.4654,0.4659,0.4611,0.4611,0.461,0,0.4213,0.4268,0.4307,0.4323,0.4367,0.4385,0.4404,0.4437,0.4458,0.449,0.4504,0.454,0.456,0.4588,0.461,0.4601,0.4658,0.4651,0.4669,0.4669,0.4681,0.468,0.4721,0.4693,0.4693,0.4693,0.4693,0,0.425,0.4282,0.4314,0.4338,0.4374,0.4395,0.443,0.4451,0.4479,0.4507,0.4521,0.4547,0.4574,0.4604,0.4622,0.466,0.4669,0.468,0.4685,0.4679,0.4678,0.4692,0.4691,0.4694,0.4694,0.4693,0.4693,0,0.4272,0.4295,0.4338,0.4375,0.4385,0.441,0.4442,0.4466,0.4485,0.4521,0.453,0.4561,0.4597,0.4621,0.4667,0.4679,0.4721,0.4725,0.4709,0.4711,0.4728,0.4726,0.478,0.4788,0.4754,0.4755,0.4755,0,0.4295,0.4319,0.4359,0.4378,0.4397,0.4428,0.4449,0.4471,0.4493,0.4532,0.4551,0.4587,0.4617,0.4674,0.4701,0.4736,0.4741,0.4757,0.4746,0.474,0.4741,0.4739,0.4741,0.4759,0.4759,0.4759,0.476,0,0.4331,0.4341,0.4371,0.4405,0.4429,0.4457,0.4485,0.4501,0.4527,0.4551,0.4587,0.4611,0.4657,0.4693,0.473,0.4751,0.476,0.4763,0.4769,0.4764,0.4753,0.4759,0.4714,0.4762,0.4761,0.4761,0.4761,0.4761,0.4355,0.4377,0.4407,0.444,0.4463,0.4488,0.4512,0.4533,0.4564,0.4602,0.4613,0.4651,0.4682,0.4733,0.4754,0.4784,0.4783,0.4791,0.4794,0.4796,0.4795,0.4748,0.4791,0.4791,0.4791,0.4791,0.4791,0,0.4392,0.4412,0.4441,0.4479,0.4505,0.451,0.4541,0.4562,0.4594,0.4623,0.4651,0.4692,0.4727,0.4756,0.4791,0.481,0.4815,0.4818,0.4817,0.4822,0.4795,0.4786,0.4814,0.4814,0.4814,0.4814,0.4814,0.4814,0.4414,0.4451,0.4464,0.4513,0.4533,0.4569,0.4586,0.4609,0.4632,0.4677,0.4705,0.4723,0.4751,0.4789,0.4821,0.4828,0.4841,0.4843,0.4852,0.4826,0.4824,0.4821,0.4813,0.4846,0.4846,0.4876,0.4877,0.4877]}]]